Time,TemperatureF,DewpointF,PressureIn,WindDirection,WindDirectionDegrees,WindSpeedMPH,WindSpeedGustMPH,Humidity,HourlyPrecipIn,Conditions,Clouds,dailyrainin,SoftwareType,DateUTC
2013-08-31 00:11:00,66.8,66.0,29.82,North,350,0.0,0.0,97,0.00,,,0.00,weatherlink.com 1.10,2013-08-31 04:11:00,
2013-08-31 00:26:00,66.7,66.0,29.83,North,350,0.0,0.0,96,0.00,,,0.00,weatherlink.com 1.10,2013-08-31 04:26:00,
2013-08-31 00:41:00,66.6,66.0,29.82,North,350,0.0,0.0,97,0.00,,,0.00,weatherlink.com 1.10,2013-08-31 04:41:00,
2013-08-31 00:56:00,66.5,66.0,29.82,North,350,0.0,0.0,97,0.00,,,0.00,weatherlink.com 1.10,2013-08-31 04:56:00,
2013-08-31 01:11:00,66.5,66.0,29.81,North,350,0.0,0.0,97,0.00,,,0.00,weatherlink.com 1.10,2013-08-31 05:11:00,
2013-08-31 01:26:00,66.2,65.0,29.80,North,350,0.0,0.0,96,0.00,,,0.00,weatherlink.com 1.10,2013-08-31 05:26:00,
2013-08-31 01:41:00,66.0,65.0,29.80,North,350,0.0,0.0,96,0.00,,,0.00,weatherlink.com 1.10,2013-08-31 05:41:00,
2013-08-31 01:56:00,65.7,65.0,29.81,North,350,0.0,0.0,96,0.00,,,0.00,weatherlink.com 1.10,2013-08-31 05:56:00,
2013-08-31 02:11:00,65.4,64.0,29.81,North,350,0.0,0.0,96,0.00,,,0.00,weatherlink.com 1.10,2013-08-31 06:11:00,
2013-08-31 02:26:00,65.6,65.0,29.81,North,350,0.0,0.0,97,0.00,,,0.00,weatherlink.com 1.10,2013-08-31 06:26:00,
2013-08-31 02:41:00,65.8,65.0,29.81,North,350,0.0,0.0,97,0.00,,,0.00,weatherlink.com 1.10,2013-08-31 06:41:00,
2013-08-31 02:56:00,65.7,65.0,29.80,North,350,0.0,0.0,97,0.00,,,0.00,weatherlink.com 1.10,2013-08-31 06:56:00,
2013-08-31 03:11:00,66.0,66.0,29.80,WNW,294,0.0,0.0,98,0.00,,,0.00,weatherlink.com 1.10,2013-08-31 07:11:00,
2013-08-31 03:26:00,65.8,65.0,29.80,WNW,294,0.0,0.0,97,0.00,,,0.00,weatherlink.com 1.10,2013-08-31 07:26:00,
2013-08-31 03:41:00,65.7,65.0,29.80,WNW,294,0.0,0.0,97,0.00,,,0.00,weatherlink.com 1.10,2013-08-31 07:41:00,
2013-08-31 03:56:00,65.9,65.0,29.81,WNW,294,0.0,0.0,98,0.00,,,0.00,weatherlink.com 1.10,2013-08-31 07:56:00,
2013-08-31 04:13:00,66.2,66.0,29.80,SW,224,0.0,0.0,98,0.12,,,0.12,weatherlink.com 1.10,2013-08-31 08:13:00,
2013-08-31 04:27:00,66.5,66.0,29.80,SW,224,0.0,0.0,98,0.17,,,0.17,weatherlink.com 1.10,2013-08-31 08:27:00,
2013-08-31 04:41:00,66.5,66.0,29.81,SW,224,0.0,0.0,98,0.18,,,0.18,weatherlink.com 1.10,2013-08-31 08:41:00,
2013-08-31 04:56:00,66.5,66.0,29.81,SW,224,0.0,0.0,98,0.18,,,0.18,weatherlink.com 1.10,2013-08-31 08:56:00,
2013-08-31 05:11:00,66.4,66.0,29.82,SW,224,0.0,0.0,98,0.11,,,0.19,weatherlink.com 1.10,2013-08-31 09:11:00,
2013-08-31 05:27:00,66.4,66.0,29.80,SW,224,0.0,0.0,98,0.02,,,0.20,weatherlink.com 1.10,2013-08-31 09:27:00,
2013-08-31 05:41:00,66.4,66.0,29.80,SW,224,0.0,0.0,98,0.02,,,0.20,weatherlink.com 1.10,2013-08-31 09:41:00,
2013-08-31 05:56:00,66.4,66.0,29.80,SW,224,0.0,0.0,98,0.02,,,0.20,weatherlink.com 1.10,2013-08-31 09:56:00,
2013-08-31 06:11:00,66.2,66.0,29.81,SW,224,0.0,0.0,98,0.01,,,0.20,weatherlink.com 1.10,2013-08-31 10:11:00,
2013-08-31 06:26:00,66.1,66.0,29.82,SW,224,0.0,0.0,98,0.00,,,0.20,weatherlink.com 1.10,2013-08-31 10:26:00,
2013-08-31 06:41:00,66.1,66.0,29.81,SW,224,0.0,0.0,98,0.00,,,0.20,weatherlink.com 1.10,2013-08-31 10:41:00,
2013-08-31 06:56:00,66.1,66.0,29.81,SW,224,0.0,0.0,98,0.01,,,0.21,weatherlink.com 1.10,2013-08-31 10:56:00,
2013-08-31 07:11:00,66.2,66.0,29.81,WSW,250,0.0,0.0,98,0.01,,,0.21,weatherlink.com 1.10,2013-08-31 11:11:00,
2013-08-31 07:26:00,66.3,66.0,29.81,WSW,250,0.0,0.0,99,0.01,,,0.21,weatherlink.com 1.10,2013-08-31 11:26:00,
2013-08-31 07:41:00,66.3,66.0,29.81,WSW,250,0.0,0.0,98,0.01,,,0.21,weatherlink.com 1.10,2013-08-31 11:41:00,
2013-08-31 07:56:00,66.5,66.0,29.81,WSW,250,0.0,0.0,99,0.00,,,0.21,weatherlink.com 1.10,2013-08-31 11:56:00,
2013-08-31 08:11:00,66.8,67.0,29.82,WSW,250,0.0,0.0,99,0.00,,,0.21,weatherlink.com 1.10,2013-08-31 12:11:00,
2013-08-31 08:26:00,67.1,67.0,29.82,WSW,250,0.0,0.0,99,0.00,,,0.21,weatherlink.com 1.10,2013-08-31 12:26:00,
2013-08-31 08:41:00,67.5,67.0,29.82,WSW,250,0.0,0.0,99,0.00,,,0.21,weatherlink.com 1.10,2013-08-31 12:41:00,
2013-08-31 08:56:00,67.9,68.0,29.82,WSW,250,0.0,0.0,99,0.00,,,0.21,weatherlink.com 1.10,2013-08-31 12:56:00,
2013-08-31 09:11:00,68.1,68.0,29.82,WSW,250,0.0,0.0,99,0.00,,,0.21,weatherlink.com 1.10,2013-08-31 13:11:00,
2013-08-31 09:26:00,68.5,68.0,29.82,WSW,250,0.0,0.0,99,0.00,,,0.21,weatherlink.com 1.10,2013-08-31 13:26:00,
2013-08-31 09:41:00,68.9,69.0,29.82,WSW,253,0.0,0.0,99,0.00,,,0.21,weatherlink.com 1.10,2013-08-31 13:41:00,
2013-08-31 09:56:00,69.3,69.0,29.82,West,273,0.0,0.0,99,0.00,,,0.21,weatherlink.com 1.10,2013-08-31 13:56:00,
2013-08-31 10:11:00,69.7,69.0,29.82,West,274,0.0,0.0,99,0.00,,,0.21,weatherlink.com 1.10,2013-08-31 14:11:00,
2013-08-31 10:26:00,70.2,70.0,29.82,WSW,256,0.0,0.0,99,0.00,,,0.21,weatherlink.com 1.10,2013-08-31 14:26:00,
2013-08-31 10:42:00,70.5,70.0,29.82,West,261,0.0,0.0,99,0.00,,,0.21,weatherlink.com 1.10,2013-08-31 14:42:00,
2013-08-31 10:57:00,70.8,71.0,29.82,NNW,342,0.0,0.0,99,0.00,,,0.21,weatherlink.com 1.10,2013-08-31 14:57:00,
2013-08-31 11:12:00,71.1,71.0,29.82,West,265,0.0,0.0,99,0.00,,,0.21,weatherlink.com 1.10,2013-08-31 15:12:00,
2013-08-31 11:27:00,71.3,71.0,29.82,West,265,0.0,0.0,99,0.00,,,0.21,weatherlink.com 1.10,2013-08-31 15:27:00,
2013-08-31 11:42:00,71.5,71.0,29.82,WSW,243,0.0,0.0,99,0.00,,,0.21,weatherlink.com 1.10,2013-08-31 15:42:00,
2013-08-31 11:57:00,71.6,71.0,29.81,WNW,284,0.0,0.0,99,0.00,,,0.21,weatherlink.com 1.10,2013-08-31 15:57:00,
2013-08-31 12:12:00,72.1,72.0,29.81,West,260,0.0,0.0,99,0.00,,,0.21,weatherlink.com 1.10,2013-08-31 16:12:00,
2013-08-31 12:27:00,72.8,72.0,29.80,West,267,0.0,0.0,98,0.00,,,0.21,weatherlink.com 1.10,2013-08-31 16:27:00,
2013-08-31 12:42:00,72.9,71.0,29.80,NNE,19,0.0,0.0,95,0.00,,,0.21,weatherlink.com 1.10,2013-08-31 16:42:00,
2013-08-31 12:57:00,73.0,72.0,29.80,West,265,0.0,0.0,95,0.00,,,0.21,weatherlink.com 1.10,2013-08-31 16:57:00,
2013-08-31 13:12:00,73.5,72.0,29.80,WNW,298,0.0,0.0,95,0.00,,,0.21,weatherlink.com 1.10,2013-08-31 17:12:00,
2013-08-31 13:27:00,74.3,73.0,29.80,West,279,0.0,0.0,94,0.00,,,0.21,weatherlink.com 1.10,2013-08-31 17:27:00,
2013-08-31 13:42:00,74.7,73.0,29.80,WNW,293,0.0,0.0,93,0.00,,,0.21,weatherlink.com 1.10,2013-08-31 17:42:00,
2013-08-31 13:57:00,75.8,74.0,29.80,WNW,294,0.0,0.0,93,0.00,,,0.21,weatherlink.com 1.10,2013-08-31 17:57:00,
2013-08-31 14:12:00,76.6,74.0,29.79,West,267,0.0,0.0,91,0.00,,,0.21,weatherlink.com 1.10,2013-08-31 18:12:00,
2013-08-31 14:27:00,76.5,74.0,29.79,NNW,341,0.0,0.0,90,0.00,,,0.21,weatherlink.com 1.10,2013-08-31 18:27:00,
2013-08-31 14:42:00,76.1,73.0,29.79,WSW,253,0.0,0.0,89,0.00,,,0.21,weatherlink.com 1.10,2013-08-31 18:42:00,
2013-08-31 14:57:00,75.6,73.0,29.78,ENE,61,0.0,0.0,90,0.00,,,0.21,weatherlink.com 1.10,2013-08-31 18:57:00,
2013-08-31 15:12:00,75.0,72.0,29.79,WNW,282,0.0,0.0,89,0.00,,,0.21,weatherlink.com 1.10,2013-08-31 19:12:00,
2013-08-31 15:27:00,74.9,72.0,29.79,NW,317,0.0,0.0,91,0.00,,,0.21,weatherlink.com 1.10,2013-08-31 19:27:00,
2013-08-31 15:42:00,74.5,72.0,29.79,WNW,290,0.0,0.0,92,0.00,,,0.21,weatherlink.com 1.10,2013-08-31 19:42:00,
2013-08-31 15:57:00,74.1,72.0,29.79,West,281,0.0,0.0,92,0.00,,,0.21,weatherlink.com 1.10,2013-08-31 19:57:00,
2013-08-31 16:12:00,73.5,71.0,29.79,WSW,241,0.0,0.0,93,0.01,,,0.22,weatherlink.com 1.10,2013-08-31 20:12:00,
2013-08-31 16:27:00,72.8,71.0,29.78,WNW,294,0.0,0.0,95,0.01,,,0.22,weatherlink.com 1.10,2013-08-31 20:27:00,
2013-08-31 16:42:00,72.6,71.0,29.78,WNW,294,0.0,0.0,96,0.01,,,0.22,weatherlink.com 1.10,2013-08-31 20:42:00,
2013-08-31 16:57:00,72.4,71.0,29.79,West,267,0.0,0.0,96,0.01,,,0.22,weatherlink.com 1.10,2013-08-31 20:57:00,
2013-08-31 17:12:00,72.2,71.0,29.78,West,267,0.0,0.0,96,0.00,,,0.22,weatherlink.com 1.10,2013-08-31 21:12:00,
2013-08-31 17:27:00,72.1,71.0,29.78,West,267,0.0,0.0,96,0.00,,,0.22,weatherlink.com 1.10,2013-08-31 21:27:00,
2013-08-31 17:42:00,72.1,71.0,29.78,West,268,0.0,0.0,97,0.00,,,0.22,weatherlink.com 1.10,2013-08-31 21:42:00,
2013-08-31 17:57:00,72.0,71.0,29.77,West,278,0.0,0.0,97,0.00,,,0.22,weatherlink.com 1.10,2013-08-31 21:57:00,
2013-08-31 18:12:00,71.9,71.0,29.77,WNW,284,0.0,0.0,97,0.00,,,0.22,weatherlink.com 1.10,2013-08-31 22:12:00,
2013-08-31 18:28:00,71.8,71.0,29.77,WNW,282,0.0,0.0,97,0.00,,,0.22,weatherlink.com 1.10,2013-08-31 22:28:00,
2013-08-31 18:43:00,71.7,71.0,29.78,West,272,0.0,0.0,97,0.00,,,0.22,weatherlink.com 1.10,2013-08-31 22:43:00,
2013-08-31 18:58:00,71.7,71.0,29.78,WNW,285,0.0,1.0,97,0.00,,,0.22,weatherlink.com 1.10,2013-08-31 22:58:00,
2013-08-31 19:12:00,71.7,71.0,29.78,WNW,288,0.0,1.0,97,0.00,,,0.22,weatherlink.com 1.10,2013-08-31 23:12:00,
2013-08-31 19:27:00,71.6,71.0,29.78,NNW,331,0.0,1.0,97,0.00,,,0.22,weatherlink.com 1.10,2013-08-31 23:27:00,
2013-08-31 19:42:00,71.7,71.0,29.78,NNW,338,0.0,0.0,97,0.00,,,0.22,weatherlink.com 1.10,2013-08-31 23:42:00,
2013-08-31 19:57:00,71.6,71.0,29.78,NW,309,0.0,0.0,97,0.00,,,0.22,weatherlink.com 1.10,2013-08-31 23:57:00,
2013-08-31 20:12:00,71.6,71.0,29.79,WSW,257,0.0,0.0,97,0.00,,,0.22,weatherlink.com 1.10,2013-09-01 00:12:00,
2013-08-31 20:27:00,71.6,71.0,29.79,WNW,294,0.0,0.0,97,0.00,,,0.22,weatherlink.com 1.10,2013-09-01 00:27:00,
2013-08-31 20:42:00,70.8,69.0,29.80,NE,34,0.0,0.0,95,0.00,,,0.22,weatherlink.com 1.10,2013-09-01 00:42:00,
2013-08-31 20:57:00,70.3,69.0,29.80,West,280,0.0,0.0,96,0.00,,,0.22,weatherlink.com 1.10,2013-09-01 00:57:00,
2013-08-31 21:12:00,70.3,69.0,29.80,WNW,293,0.0,0.0,97,0.00,,,0.22,weatherlink.com 1.10,2013-09-01 01:12:00,
2013-08-31 21:27:00,70.6,70.0,29.80,West,272,0.0,0.0,98,0.00,,,0.22,weatherlink.com 1.10,2013-09-01 01:27:00,
2013-08-31 21:42:00,70.6,70.0,29.80,West,277,0.0,0.0,98,0.01,,,0.23,weatherlink.com 1.10,2013-09-01 01:42:00,
2013-08-31 21:57:00,70.7,70.0,29.80,West,272,0.0,0.0,98,0.01,,,0.23,weatherlink.com 1.10,2013-09-01 01:57:00,
2013-08-31 22:12:00,70.9,70.0,29.81,West,261,0.0,0.0,98,0.01,,,0.23,weatherlink.com 1.10,2013-09-01 02:12:00,
2013-08-31 22:27:00,71.0,70.0,29.80,WSW,250,0.0,0.0,98,0.01,,,0.23,weatherlink.com 1.10,2013-09-01 02:27:00,
2013-08-31 22:42:00,71.0,70.0,29.80,WSW,254,0.0,0.0,98,0.00,,,0.23,weatherlink.com 1.10,2013-09-01 02:42:00,
2013-08-31 22:57:00,70.9,70.0,29.80,WNW,284,0.0,0.0,98,0.00,,,0.23,weatherlink.com 1.10,2013-09-01 02:57:00,
2013-08-31 23:12:00,70.7,70.0,29.81,WNW,284,0.0,1.0,98,0.00,,,0.23,weatherlink.com 1.10,2013-09-01 03:12:00,
2013-08-31 23:27:00,70.7,70.0,29.81,WNW,285,0.0,0.0,98,0.00,,,0.23,weatherlink.com 1.10,2013-09-01 03:27:00,
2013-08-31 23:42:00,70.6,70.0,29.82,WNW,290,0.0,0.0,98,0.00,,,0.23,weatherlink.com 1.10,2013-09-01 03:42:00,
2013-08-31 23:57:00,70.5,70.0,29.81,WSW,250,0.0,0.0,98,0.00,,,0.23,weatherlink.com 1.10,2013-09-01 03:57:00,